SL-16 DEB, 39886

Orbit data source: Space-Track

SL-16 DEB, 39886 is space debris in LEO originally from a launch on Fri, 26 Mar 1993 UTC launched from the Tyuratam Missile And Space Complex (TTMTR). Debris objects in space refer to the collection of defunct objects orbiting the Earth. Examples of debris include non-operational satellites, rocket bodies, and fragments generated from explosions, collisions, or faulty payload assembly.

Loading next visibility...
Identifier
39886, 1993-016BL
Orbit
LEO
Country
Flag of CISCIS
Related business
Manufacturer
Unknown
Mission
Spacecraft
Bus & Motor
Unknown
Mass
Unknown
Launch date (UTC)
1993-03-26 (33 years ago)
Launch vehicle
Unknown
Launch site
Tyuratam Missile And Space Complex (TTMTR)
Object type
Payload
Rocket body
Debris
Shape & HBR
Unknown shape, 0.1 m
Radar Cross Section
Small (<0.1 m²)

Expand to show TLE details & history
Last TLE update: 1 day ago

TLE from 1 day ago
0 SL-16 DEB
1 39886U 93016BL  26254.25828149  .00002915  00000-0  39019-3 0  9993
2 39886  71.0042 108.3833 0043084  66.1921 294.3744 14.79739929655021
Epoch: 2026-09-11T06:11Z
TLE epoch observation values (Epoch: 2026-09-11T06:11:55.520Z)
Latitude
0.00002°
Longitude
25.11775°
Altitude
620.264 km
Speed
7.556 km/s
True Right ascension
07h 13m 31s
True Declination
0° 00' 00"
Sunlit
Object was in daylight at epoch
Visualization orbit readout
Latitude
Unknown
Longitude
Unknown
Altitude
Unknown
Speed
Unknown
Apparent Right ascension
Unknown
Apparent Declination
Unknown
Sunlit
N/A
Visualization observer readout
Local Sidereal Time
09:44:01
Azimuth
Unknown
Elevation
Unknown
Doppler factor
Unknown
Orbital elements
Apogee altitude
658.192 km
Perigee altitude
597.821 km
Semi-major axis
7,006.144 km
Eccentricity
0.00431
Inclination
71.0042°
RAAN
108.3833°
Arg. of periapsis
66.1921°
True anomaly
293.9237°
Mean anomaly
294.3744°
Eccentric anomaly
294.14915°
Mean motion
3.70105 °/min
Orbital period
97.27 mins
BSTAR
0.00039019
Loading maneuver chart data...
Computing Atmospheric mass density...
Loading historical data...
Loading historical data...
Loading historical data...
Loading historical data...
Loading historical data...
Loading historical data...
Loading historical data...

Documentation

Showing up to 5 results
|